Probability
0 0 0 0 0 0 0 0 0 0 0 0 0 0 0 0 0 0 0 0 0 3 6 6 3 3 3 3 0 0 3 0 0 0 0 0 0 0 0 0 0 0 0
0 0 0 0 0 0 0 0 0 0 0 0 0 0 0 0 0 0 0 0 0 0 3 6 3 3 3 3 0 0 3 0 0 0 0 0 0 0 0 0 0 0 0
0 0 0 0 0 0 0 0 0 0 0 0 0 0 0 0 0 0 0 0 0 0 0 3 3 3 3 3 3 0 3 0 0 0 0 0 0 0 0 0 0 0 0
0 0 0 0 0 0 0 0 0 0 0 0 0 0 0 0 0 0 0 0 0 0 0 0 0 3 6 3 3 3 0 0 0 0 0 0 0 0 0 0 0 0 0
0 0 0 0 0 0 0 0 0 0 0 0 0 0 0 0 0 0 0 0 0 0 0 0 0 0 0 3 3 3 0 0 0 0 0 0 0 0 0 0 0 0 0
0 0 0 0 0 0 0 0 0 0 0 0 0 0 0 0 0 0 0 0 0 0 0 0 0 0 0 0 3 3 0 0 0 0 0 0 0 0 0 0 0 0 0
0 0 0 0 0 0 0 0 0 0 0 0 0 0 0 0 0 0 0 0 0 0 0 0 0 0 0 0 0 0 0 0 0 0 0 0 0 0 0 0 0 0 0
0 0 0 0 0 0 0 0 0 0 0 0 0 0 0 0 0 0 0 0 0 0 0 0 0 0 0 0 0 0 0 0 0 0 0 0 0 0 0 0 0 0 0
0 0 0 0 0 0 0 0 0 0 0 0 0 0 0 0 0 0 0 0 0 0 0 0 0 0 0 0 0 0 0 0 0 0 0 0 0 0 0 0 0 0 0
0 0 0 0 0 0 0 0 0 0 0 0 0 0 0 0 0 0 0 0 0 0 0 0 0 0 0 0 0 0 0 0 0 0 0 0 0 0 0 0 0 0 0
0 0 0 0 0 0 0 0 0 0 0 0 0 0 0 0 0 0 0 0 0 0 0 0 0 0 0 0 0 0 0 0 0 0 0 0 0 0 0 0 0 0 0
0 0 0 0 0 0 0 0 0 0 0 0 0 0 0 0 0 0 0 0 0 0 0 0 0 0 0 0 0 0 0 0 0 0 0 0 0 0 0 0 0 0 0
0 0 0 0 0 0 0 0 0 0 0 0 0 0 0 0 0 0 0 0 0 0 0 0 0 0 0 0 0 0 0 0 0 0 0 0 0 0 0 0 0 0 0
0 0 0 0 0 0 0 0 0 0 0 0 0 0 0 0 0 0 0 0 0 0 0 0 0 0 0 0 0 0 0 0 0 0 0 0 0 0 0 0 0 0 0
0 0 0 0 0 0 0 0 0 0 0 0 0 0 0 0 0 0 0 0 0 0 0 0 0 0 0 0 0 0 0 0 0 0 0 0 0 0 0 0 0 0 0
0 0 0 0 0 0 0 0 0 0 0 0 0 0 0 0 0 0 0 0 0 0 0 0 0 0 0 0 0 0 0 0 0 0 0 0 0 0 0 0 0 0 0
0 0 0 0 0 0 0 0 0 0 0 0 0 0 0 0 0 0 0 0 0 0 0 0 0 0 0 0 0 0 0 0 0 0 0 0 0 0 0 0 0 0 0
0 0 0 0 0 0 0 0 0 0 0 0 0 0 0 0 0 0 0 0 0 0 0 0 0 0 0 0 0 0 0 0 0 0 0 0 0 0 0 0 0 0 0
0 0 0 0 0 0 0 0 0 0 0 0 0 0 0 0 0 0 0 0 0 0 0 0 0 0 0 0 0 0 0 0 0 0 0 0 0 0 0 0 0 0 0
0 0 0 0 0 0 0 0 0 0 0 0 0 0 0 0 0 0 0 0 0 0 0 0 0 0 0 0 0 0 0 0 0 0 0 0 0 0 0 0 0 0 0
0 0 0 0 0 0 0 0 0 0 0 0 0 0 0 0 0 0 0 0 0 0 0 0 0 0 0 0 0 0 0 0 0 0 0 0 0 0 0 0 0 0 0
0 0 0 0 0 0 0 0 0 0 0 0 0 0 0 0 0 0 0 0 0 0 0 0 0 0 0 0 0 0 0 0 0 0 0 0 0 0 0 0 0 0 0
0 0 0 0 0 0 0 0 0 0 0 0 0 0 0 0 0 0 0 0 0 0 0 0 0 0 0 0 0 0 0 0 0 0 0 0 0 0 0 0 0 0 0
0 0 0 0 0 0 0 0 0 0 0 0 0 0 0 0 0 0 0 0 0 0 0 0 0 0 0 0 0 0 0 0 0 0 0 0 0 0 0 0 0 0 0
0 0 0 0 0 0 0 0 0 0 0 0 0 0 0 0 0 0 0 0 0 0 0 0 0 0 0 0 0 0 0 0 0 0 0 0 0 0 0 0 0 0 0
0 0 0 0 0 0 0 0 0 0 0 0 0 0 0 0 0 0 0 0 0 0 0 0 0 0 0 0 0 0 0 0 0 0 0 0 0 0 0 0 0 0 0
Height
5780 5781 5783 5784 5785 5787 5789 5790 5792 5794 5796 5798 5801 5803 5805 5808 5809 5811 5813 5814 5816 5817 5818 5820 5821 5822 5823 5824 5825 5825 5826 5826 5827 5827 5828 5828 5828 5828 5828 5828 5828 5827 5827
5771 5773 5774 5775 5776 5778 5779 5781 5783 5785 5788 5790 5792 5795 5798 5800 5802 5804 5806 5807 5809 5811 5812 5813 5814 5816 5817 5818 5819 5819 5820 5821 5821 5821 5822 5822 5822 5823 5823 5822 5822 5822 5821
5762 5763 5765 5766 5767 5768 5770 5771 5773 5776 5778 5780 5783 5786 5789 5791 5794 5796 5798 5800 5802 5803 5805 5806 5808 5809 5810 5811 5812 5813 5813 5814 5815 5815 5815 5816 5816 5816 5816 5816 5816 5816 5815
5754 5755 5756 5756 5757 5758 5759 5761 5763 5766 5768 5771 5774 5777 5780 5783 5785 5788 5790 5792 5794 5796 5797 5799 5800 5802 5803 5803 5805 5805 5806 5807 5808 5808 5808 5809 5809 5809 5809 5809 5809 5809 5808
5746 5746 5746 5746 5746 5748 5749 5751 5753 5756 5758 5762 5765 5768 5771 5774 5776 5779 5781 5783 5785 5787 5789 5790 5792 5793 5795 5796 5797 5798 5798 5799 5800 5801 5801 5801 5802 5802 5802 5802 5802 5801 5801
5738 5738 5737 5737 5737 5738 5740 5742 5743 5746 5749 5752 5755 5759 5762 5765 5767 5770 5772 5774 5776 5778 5780 5781 5783 5784 5786 5787 5788 5789 5790 5791 5792 5792 5793 5793 5794 5794 5794 5794 5794 5793 5793
5730 5730 5729 5729 5728 5729 5731 5733 5734 5737 5740 5743 5746 5750 5753 5756 5759 5761 5763 5765 5766 5768 5770 5772 5774 5775 5776 5778 5779 5780 5781 5781 5782 5783 5784 5784 5785 5785 5785 5785 5785 5784 5784
5723 5722 5722 5721 5721 5722 5723 5725 5726 5729 5732 5735 5738 5741 5743 5746 5749 5751 5753 5755 5757 5759 5761 5762 5764 5765 5766 5768 5769 5770 5771 5771 5772 5773 5774 5775 5775 5775 5775 5775 5775 5775 5775
5716 5715 5715 5715 5715 5714 5715 5716 5718 5721 5724 5726 5729 5732 5734 5737 5740 5742 5744 5746 5748 5749 5751 5752 5754 5755 5756 5757 5758 5759 5760 5761 5762 5762 5763 5764 5764 5764 5765 5765 5765 5765 5764
5708 5709 5709 5708 5708 5708 5708 5709 5711 5713 5715 5717 5719 5722 5725 5727 5730 5732 5734 5736 5738 5740 5741 5742 5744 5745 5746 5747 5748 5749 5749 5750 5751 5751 5752 5752 5753 5753 5753 5754 5754 5753 5753
5702 5702 5702 5701 5701 5701 5701 5702 5703 5705 5706 5708 5710 5713 5715 5717 5719 5721 5724 5726 5728 5729 5731 5732 5733 5734 5735 5736 5737 5737 5738 5739 5739 5739 5740 5740 5741 5741 5742 5742 5742 5741 5741
5695 5695 5694 5694 5694 5694 5694 5694 5695 5696 5698 5699 5701 5703 5705 5707 5709 5710 5713 5716 5718 5719 5720 5721 5723 5724 5724 5725 5726 5726 5726 5727 5727 5727 5727 5728 5728 5729 5729 5729 5729 5729 5728
5688 5687 5687 5687 5687 5686 5686 5686 5687 5687 5688 5690 5691 5693 5695 5697 5699 5700 5702 5704 5707 5709 5710 5711 5712 5713 5714 5714 5714 5715 5715 5715 5715 5715 5715 5715 5715 5716 5716 5716 5716 5715 5715
5680 5679 5679 5679 5679 5679 5679 5678 5679 5679 5680 5681 5682 5683 5685 5687 5688 5690 5691 5693 5695 5698 5699 5700 5701 5701 5702 5702 5702 5703 5703 5703 5703 5702 5702 5702 5702 5702 5702 5702 5702 5701 5700
5672 5671 5671 5671 5671 5671 5670 5670 5670 5670 5671 5671 5672 5673 5674 5676 5678 5679 5680 5682 5684 5686 5688 5689 5690 5690 5690 5690 5690 5690 5691 5691 5690 5690 5689 5689 5688 5688 5688 5688 5687 5686 5686
5664 5663 5663 5663 5662 5662 5662 5661 5661 5661 5661 5661 5662 5662 5663 5665 5667 5668 5669 5670 5672 5673 5675 5677 5677 5677 5677 5677 5677 5678 5678 5678 5677 5677 5676 5675 5674 5673 5673 5673 5672 5671 5670
5655 5655 5655 5654 5653 5653 5652 5652 5652 5651 5651 5651 5651 5651 5653 5654 5655 5656 5657 5658 5660 5661 5662 5664 5664 5664 5664 5665 5664 5664 5664 5664 5663 5662 5661 5660 5659 5658 5658 5657 5656 5655 5653
5647 5646 5646 5645 5644 5644 5643 5642 5642 5641 5641 5641 5641 5641 5642 5643 5644 5645 5646 5647 5647 5648 5649 5650 5651 5651 5651 5651 5651 5651 5650 5650 5649 5648 5646 5645 5644 5643 5642 5640 5639 5637 5636
5638 5638 5637 5636 5635 5634 5633 5633 5632 5631 5631 5631 5630 5630 5631 5631 5632 5633 5634 5634 5635 5636 5636 5637 5638 5638 5637 5637 5637 5637 5636 5635 5634 5632 5630 5629 5628 5626 5625 5623 5621 5619 5618
5629 5629 5628 5627 5626 5625 5624 5623 5622 5622 5621 5621 5620 5620 5620 5620 5620 5621 5622 5623 5623 5623 5623 5623 5624 5624 5624 5623 5623 5623 5622 5620 5618 5616 5614 5613 5611 5609 5608 5606 5604 5602 5600
5620 5619 5619 5618 5617 5616 5615 5614 5613 5612 5611 5611 5610 5609 5609 5609 5609 5610 5611 5612 5612 5612 5611 5611 5611 5611 5610 5609 5609 5608 5607 5605 5604 5601 5599 5597 5595 5593 5590 5588 5586 5585 5583
5610 5610 5610 5609 5608 5607 5606 5604 5603 5602 5601 5600 5600 5600 5599 5599 5599 5600 5600 5600 5601 5600 5600 5599 5599 5598 5597 5596 5594 5593 5591 5590 5590 5588 5584 5582 5579 5577 5575 5573 5571 5569 5567
5601 5601 5600 5599 5599 5597 5596 5595 5593 5592 5591 5590 5590 5590 5590 5589 5589 5589 5589 5589 5589 5588 5588 5587 5586 5585 5584 5582 5581 5580 5577 5575 5573 5571 5568 5568 5564 5561 5559 5556 5555 5553 5551
5591 5591 5591 5590 5589 5588 5586 5585 5583 5582 5581 5580 5580 5580 5580 5579 5579 5578 5578 5578 5577 5576 5575 5575 5574 5572 5570 5568 5566 5565 5563 5561 5559 5556 5553 5553 5550 5547 5543 5541 5539 5538 5536
5581 5581 5580 5580 5579 5577 5575 5574 5573 5572 5571 5571 5570 5570 5570 5569 5568 5568 5567 5567 5565 5564 5562 5561 5559 5558 5556 5554 5553 5551 5549 5547 5546 5544 5540 5538 5536 5534 5531 5527 5525 5523 5521
5570 5570 5570 5569 5568 5566 5565 5564 5563 5562 5562 5561 5560 5560 5559 5558 5557 5556 5556 5555 5553 5552 5550 5548 5546 5544 5542 5540 5539 5537 5536 5534 5532 5530 5527 5525 5522 5520 5519 5516 5512 5510 5508
Wind_Speed
32 34 35 34 34 34 36 36 36 36 36 36 35 35 34 33 34 34 32 32 31 30 29 29 29 29 29 29 28 28 28 27 27 27 26 26 26 26 26 26 25 25 25
33 35 35 35 35 35 37 38 39 38 38 37 37 37 36 35 36 36 35 34 33 32 31 31 31 31 31 31 30 30 30 29 29 28 28 28 28 28 28 28 27 27 27
32 34 34 34 34 35 37 39 40 40 39 39 39 39 38 38 38 37 37 36 35 35 34 33 33 33 32 32 32 31 31 31 30 30 30 30 30 30 29 29 29 29 29
31 33 34 35 35 36 37 39 39 40 40 40 39 39 39 40 39 38 38 38 37 37 36 36 35 35 34 34 34 33 33 33 32 32 32 31 32 32 31 31 31 31 31
30 32 33 34 36 37 38 39 39 40 40 40 40 40 39 40 40 39 39 39 39 39 39 38 37 37 37 37 36 36 36 35 35 35 34 34 34 34 33 33 33 33 33
30 30 31 32 33 34 36 37 37 39 40 40 40 40 39 39 39 40 40 40 40 40 40 40 39 39 39 39 38 38 38 38 38 37 37 37 37 36 36 36 36 35 35
29 30 31 30 30 31 33 35 36 37 38 39 40 41 40 39 40 41 41 41 41 41 41 41 41 41 41 41 40 40 40 40 40 39 39 39 39 39 39 39 39 39 38
29 30 29 30 30 31 33 34 34 35 37 38 39 40 40 39 41 41 42 43 43 42 42 42 42 42 42 42 42 42 42 42 41 41 41 41 42 42 42 42 42 41 41
28 28 28 29 30 31 31 33 33 34 37 37 38 39 40 41 41 41 42 43 43 43 42 42 43 43 43 43 43 43 43 43 43 43 43 43 43 43 43 44 44 44 44
27 28 28 28 29 30 30 33 33 34 35 36 37 38 39 40 41 42 43 43 44 44 43 43 42 42 42 43 44 44 45 44 45 44 44 44 44 45 45 45 45 46 46
28 28 28 28 28 29 31 32 33 34 35 36 38 38 39 40 41 42 42 44 44 44 43 43 43 43 43 43 43 44 44 45 46 46 46 46 46 47 47 47 47 48 48
28 28 28 28 28 29 29 31 34 34 36 37 38 39 39 40 41 42 43 43 43 43 43 43 44 44 43 43 43 44 44 45 45 46 47 48 48 48 48 48 49 49 50
27 28 28 28 28 28 29 31 33 35 35 37 38 39 40 41 40 41 42 43 43 43 44 44 44 45 45 46 46 46 46 46 46 47 47 47 48 49 50 50 51 51 52
28 28 29 28 28 28 29 31 33 35 36 36 37 39 40 41 41 41 42 42 43 45 45 45 45 46 47 48 48 48 48 47 47 48 48 48 49 50 50 51 52 53 53
28 29 29 29 29 29 31 31 33 34 35 36 37 38 40 40 41 42 42 43 44 46 46 46 46 47 48 49 49 49 49 49 48 48 49 50 51 51 51 51 52 53 54
29 29 30 31 30 30 31 32 33 35 37 37 39 40 41 41 41 42 43 44 45 46 46 46 47 48 48 49 49 49 49 49 50 50 50 52 53 53 53 53 54 55 56
29 29 30 31 31 31 32 33 34 35 37 38 39 40 41 41 41 42 44 44 44 46 47 47 48 49 49 49 50 50 51 51 52 52 52 53 54 54 54 55 56 57 58
29 30 31 31 31 32 32 33 34 36 37 38 38 39 40 42 41 42 44 44 45 45 47 48 49 50 49 50 50 51 52 52 53 54 54 54 55 56 56 57 58 59 60
30 31 31 31 31 32 32 32 33 34 35 35 36 37 39 41 41 42 42 43 44 45 47 48 48 49 49 50 51 51 52 53 54 55 55 56 56 57 58 59 59 60 61
32 32 31 31 31 31 32 31 32 33 34 35 36 37 39 40 41 41 41 42 43 44 45 46 47 47 48 49 50 51 52 53 54 54 55 57 57 59 59 59 58 58 58
33 32 31 31 31 31 31 32 33 34 34 35 36 36 37 38 39 39 40 41 42 43 44 45 46 47 48 48 49 50 51 53 53 54 55 55 56 57 57 57 56 56 57
33 32 31 31 31 32 32 33 34 34 34 34 34 34 35 36 38 39 40 41 42 43 43 44 45 46 47 48 49 50 51 52 52 52 53 53 54 55 55 55 55 55 55
34 34 33 33 32 32 33 33 33 34 34 33 33 33 34 35 37 39 40 41 42 43 44 44 45 46 47 48 49 50 51 51 50 51 52 51 52 53 54 54 53 54 54
35 35 34 34 33 33 33 33 33 34 34 34 33 34 34 35 36 38 40 40 40 41 43 44 44 45 46 46 48 48 49 49 48 49 49 49 49 51 51 52 51 51 51
35 35 35 34 34 34 34 34 33 33 33 34 34 35 36 36 36 37 39 40 41 42 43 45 45 45 45 45 46 46 47 48 47 47 48 48 48 48 48 49 49 48 48
36 35 35 35 35 35 35 35 34 34 33 33 34 35 35 36 36 37 39 40 41 42 44 45 45 45 45 45 46 46 47 47 47 46 46 47 47 46 45 46 47 46 46
Wind_Direction
257 256 255 256 256 254 252 250 250 250 249 248 248 248 248 247 246 246 246 247 247 249 250 250 251 252 253 254 256 258 260 261 262 261 262 263 264 266 267 270 271 273 273
257 256 256 256 255 255 254 251 250 249 248 248 247 248 248 249 247 247 247 248 248 249 250 251 252 252 253 254 255 258 259 260 260 261 261 263 265 267 268 269 270 272 274
260 258 257 257 256 254 253 252 250 249 247 247 246 247 247 247 247 247 247 248 249 250 251 251 252 253 254 255 256 257 258 259 261 261 262 263 265 267 268 269 270 272 274
261 260 259 257 255 254 253 251 250 249 248 247 246 245 245 247 246 247 248 248 249 250 251 251 252 254 255 255 256 256 257 259 260 262 263 264 265 266 268 269 270 271 274
263 263 262 260 257 255 253 252 251 249 248 248 247 245 244 245 245 246 248 248 250 250 251 252 252 254 255 256 256 256 257 258 260 261 263 265 266 267 268 270 271 272 274
266 266 264 261 260 257 255 253 251 249 247 246 247 246 244 245 246 247 247 248 250 251 252 253 253 254 255 256 256 257 258 259 259 261 263 264 266 267 268 269 270 271 274
268 268 266 263 262 259 256 254 252 249 247 245 246 246 245 246 247 248 248 248 250 251 252 253 255 256 257 256 257 258 258 259 260 261 263 264 265 267 268 269 270 271 272
271 267 266 264 262 260 258 255 254 251 248 246 246 246 247 247 247 248 249 249 250 252 253 253 254 256 257 257 257 258 259 260 262 263 263 264 265 267 268 268 269 271 271
270 266 266 267 267 266 260 255 254 253 249 247 247 248 249 250 248 249 249 250 251 252 254 254 255 256 257 257 258 259 260 261 263 264 264 265 266 267 268 268 269 270 271
271 267 268 270 271 269 264 258 256 254 251 250 249 248 250 251 250 249 250 251 252 254 255 255 256 257 257 259 259 260 260 261 263 264 264 265 265 266 268 269 269 270 271
271 269 271 271 271 269 267 263 258 256 253 251 250 250 251 252 252 251 252 253 255 256 256 256 257 258 259 260 260 260 261 262 263 264 264 264 265 266 267 268 269 270 271
271 271 272 271 271 269 268 265 259 257 255 254 252 253 253 254 254 254 254 254 255 256 257 257 258 259 259 260 261 263 263 263 264 265 265 265 265 266 267 269 270 271 271
270 269 270 269 269 268 267 266 262 260 257 256 255 255 255 255 256 256 256 255 254 255 256 258 259 260 260 262 264 264 266 266 266 266 266 266 266 266 267 269 270 271 272
270 269 270 268 268 267 267 268 267 263 259 260 260 259 258 257 257 256 255 255 255 255 256 258 259 261 262 264 265 265 266 266 267 268 267 267 267 267 268 269 270 271 272
270 269 269 269 268 268 269 270 268 265 261 261 262 262 261 259 258 257 256 256 256 256 257 258 259 261 263 264 265 266 266 267 267 268 269 269 269 268 269 271 272 272 272
269 269 268 267 268 268 269 270 269 266 265 264 263 263 262 261 259 258 258 257 258 259 259 259 260 261 262 263 265 266 266 267 268 269 270 270 270 270 270 271 272 272 272
269 270 269 267 267 269 270 270 268 269 268 265 265 264 263 263 262 261 260 260 261 261 261 261 261 261 262 263 265 265 266 268 268 270 271 271 271 271 271 272 272 273 273
269 271 270 269 269 270 272 271 269 270 270 269 266 265 264 263 262 262 262 262 262 264 264 264 263 263 264 264 265 266 268 269 270 271 272 272 272 271 271 272 272 273 274
268 270 271 271 272 272 272 271 271 271 270 269 269 267 265 263 262 262 263 263 263 265 265 264 264 265 265 266 267 268 270 270 272 272 273 273 272 272 272 273 273 274 274
268 269 271 271 271 271 271 271 271 270 269 269 269 268 267 265 262 263 264 264 265 266 266 266 266 267 269 269 270 271 271 272 273 274 275 274 274 274 273 274 274 274 275
269 269 271 271 271 272 273 272 273 271 270 271 271 270 268 265 264 264 264 265 267 268 269 268 268 269 271 271 272 273 273 274 274 275 275 275 276 275 274 274 274 274 275
268 269 271 272 273 273 274 274 273 272 272 271 271 270 270 267 265 265 267 267 268 269 271 271 271 271 273 273 273 274 275 275 275 276 275 275 276 275 274 274 274 274 275
267 268 270 273 274 276 276 276 275 275 273 271 270 270 270 269 268 267 269 270 271 272 273 273 273 274 275 274 274 274 275 275 276 276 275 275 275 276 275 274 274 274 275
267 268 270 272 275 277 277 277 277 276 273 272 271 270 270 271 271 271 271 272 274 276 275 276 276 277 276 275 275 275 276 276 276 277 277 277 277 277 275 275 275 275 275
268 268 270 272 274 276 277 277 276 275 273 272 271 271 271 272 273 274 274 274 275 276 276 277 277 277 276 276 276 277 278 279 279 279 279 279 279 278 277 276 277 277 278
267 268 269 271 273 275 275 275 275 274 273 273 273 273 274 274 274 277 277 277 276 277 277 277 277 276 276 276 276 278 278 279 280 279 279 279 279 278 276 276 278 278 278